Regional Weather Roundup
Issued by NWS

Home | Current Version | Previous Version | Graphics & Text | Print | Product List | Glossary On
Versions: 1 2 3 4 5 6 7 8 9 10 11 12 13 14 15 16 17 18 19 20 21 22 23 24 25 26 27 28 29 30 31 32 33 34 35 36 37 38 39 40 41 42 43 44 45 46 47 48 49 50
608
ASUS43 KDTX 100610
RWRMI
MICHIGAN HOURLY REGIONAL WEATHER ROUNDUP
NATIONAL WEATHER SERVICE DETROIT/PONTIAC MI
100 AM EST WED FEB 10 2016

NOTE: "FAIR" INDICATES FEW OR NO CLOUDS BELOW 12,000 FEET WITH NO
SIGNIFICANT WEATHER AND/OR OBSTRUCTION TO VISIBILITY.

MIZ047>049-052>055-059>063-066>070-074>076-081>083-100700-
SOUTHEAST LOWER MICHIGAN

CITY           SKY/WX    TMP DP  RH WIND       PRES   REMARKS
ADRIAN         CLOUDY    24  15  68 NW13G21   29.76S WCI  12
6HR MIN TEMP:  24; 6HR MAX TEMP:  26; 6HR PCP: TRACE;

ALMA           FLURRIES  23  18  80 W12       29.74S WCI  11
ANN ARBOR      LGT SNOW  23  18  81 W12       29.72S WCI  12
BAD AXE        FLURRIES  21  18  88 NW13      29.66S WCI   8
CARO           CLOUDY    21  19  93 W12       29.68S WCI   9
DETROIT CITY   CLOUDY    24  18  77 W7        29.70S WCI  16
6HR MIN TEMP:  24; 6HR MAX TEMP:  27; 6HR PCP: TRACE;

DETROIT        LGT SNOW  25  19  80 W12       29.72S FOG     WCI  14
6HR MIN TEMP:  24; 6HR MAX TEMP:  27; 6HR PCP:  0.01;

FLINT          FLURRIES  24  15  68 NW14      29.70F WCI  12
6HR MIN TEMP:  24; 6HR MAX TEMP:  27; 6HR PCP:  0.01;

GROSSE ILE     LGT SNOW  25  19  80 W12       29.71S WCI  14
HILLSDALE      FLURRIES  21  16  80 W9G16     29.73F WCI  11
6HR MIN TEMP:  21; 6HR MAX TEMP:  24;

HOWELL         FLURRIES  23  19  83 W10       29.71S WCI  12

CITY           SKY/WX    TMP DP  RH WIND       PRES   REMARKS
JACKSON        CLOUDY    22  15  75 W13       29.73F WCI  10
6HR MIN TEMP:  22; 6HR MAX TEMP:  24;

LAMBERTVILLE   FLURRIES  24  19  78 W10G18    29.75F WCI  14
6HR MIN TEMP:  24; 6HR MAX TEMP:  27;

LANSING        FLURRIES  22  16  78 NW13G22   29.74F WCI  10
6HR MIN TEMP:  22; 6HR MAX TEMP:  25; 6HR PCP: TRACE;

LAPEER         FLURRIES  21  18  86 NW8       29.68S WCI  11
6HR MIN TEMP:  21; 6HR MAX TEMP:  25;

MASON          FLURRIES  22  17  83 W14       29.73F WCI   9
MONROE         CLOUDY    25  19  75 W14G20    29.73F WCI  14
6HR MIN TEMP:  25; 6HR MAX TEMP:  27;

MT. CLEMENS    MIX PCPN  23  18  80 W12       29.67S WCI  12
6HR MIN TEMP:  24; 6HR MAX TEMP:  28; 6HR PCP: TRACE;

PONTIAC        LGT SNOW  22  18  85 W10       29.67F FOG     WCI  11
6HR MIN TEMP:  22; 6HR MAX TEMP:  25; 6HR PCP: TRACE;

PORT HOPE        N/A     22  19  89 W15G21    29.63R WCI   9
6HR MIN TEMP:  22; 6HR MAX TEMP:  29; 6HR PCP:  0.03;

PORT HURON     FLURRIES  23  19  86 W12       29.67R WCI  12
TRI CITIES     LGT SNOW  23  16  74 W14       29.71F WCI  11
6HR MIN TEMP:  23; 6HR MAX TEMP:  27; 6HR PCP: TRACE;

MIDLAND        FLURRIES  22  15  76 W10       29.70F WCI  11
6HR MIN TEMP:  22; 6HR MAX TEMP:  26;

TROY           LGT SNOW  25  21  86 W12       29.71S WCI  14
SAGINAW HB     LGT SNOW  25  19  80 W12       29.70F WCI  14
$$
MIZ043>046-050>051-056>058-064>065-071>073-077>080-100700-
SOUTHWEST LOWER MICHIGAN

CITY           SKY/WX    TMP DP  RH WIND       PRES   REMARKS
BATTLE CREEK   CLOUDY    21  13  71 NW10      29.77S WCI  10
6HR MIN TEMP:  21; 6HR MAX TEMP:  24; 6HR PCP: TRACE;

BENTON HARBOR  CLOUDY    23  11  60 NW10G18   29.84S WCI  12
6HR MIN TEMP:  22; 6HR MAX TEMP:  24; 6HR PCP:  0.03;

BIG RAPIDS     LGT SNOW  19  15  84 NW14      29.73S WCI   6
6HR MIN TEMP:  19; 6HR MAX TEMP:  23;

COLDWATER      LGT SNOW  22  19  91 W9        29.77S WCI  11
6HR MIN TEMP:  22; 6HR MAX TEMP:  24;

FREMONT        CLOUDY    18  13  79 NW14      29.79F WCI   4
HOLLAND        LGT SNOW  20  14  77 N10G16    29.82S WCI   9
6HR MIN TEMP:  20; 6HR MAX TEMP:  24; 6HR PCP:  0.04;

GRAND RAPIDS   CLOUDY    21  13  71 NW17G23   29.79S WCI   7
6HR MIN TEMP:  21; 6HR MAX TEMP:  24; 6HR PCP: TRACE;

IONIA          FLURRIES  21  15  75 NW8G21    29.75S WCI  12
6HR MIN TEMP:  21; 6HR MAX TEMP:  25;

KALAMAZOO      CLOUDY    21  15  78 NW7       29.78F WCI  12
6HR MIN TEMP:  21; 6HR MAX TEMP:  24; 6HR PCP:  0.02;

LUDINGTON      LGT SNOW  19  15  86 N17G24    29.82S WCI   3
6HR MIN TEMP:  19; 6HR MAX TEMP:  22;

MARSHALL       FLURRIES  22  15  74 NW10      29.75F WCI  11
6HR MIN TEMP:  22; 6HR MAX TEMP:  25;

MOUNT PLEASANT CLOUDY    23  13  64 NW13G18   29.72S WCI  11
6HR MIN TEMP:  23; 6HR MAX TEMP:  26;

MUSKEGON       FLURRIES  20  12  71 N16       29.83S WCI   6
6HR MIN TEMP:  20; 6HR MAX TEMP:  24; 6HR PCP: TRACE;

SOUTH HAVEN    CLOUDY    23  16  73 NW20G26   29.82S WCI   8
$$
MIZ016>042-100700-
NORTHERN LOWER MICHIGAN

CITY           SKY/WX    TMP DP  RH WIND       PRES   REMARKS
ALPENA         LGT SNOW  19  14  81 N10       29.67S WCI   7
6HR MIN TEMP:  19; 6HR MAX TEMP:  24; 6HR PCP:  0.04;

BEAVER ISLAND  LGT SNOW  14   7  73 N17G25    29.78S WCI  -3
6HR MIN TEMP:  14; 6HR MAX TEMP:  20;

BELLAIRE       LGT SNOW  17  13  84 N6        29.77R WCI   9
6HR MIN TEMP:  17; 6HR MAX TEMP:  23;

CADILLAC       LGT SNOW  18  11  76 NW16G22   29.69S WCI   3
CHARLEVOIX     CLOUDY    17  11  78 N17G28    29.79S WCI   1
FRANKFORT      LGT SNOW  20  14  76 N13G23    29.80S WCI   8
GAYLORD        LGT SNOW  13   6  74 NW10G18   29.67S WCI   0
6HR MIN TEMP:  13; 6HR MAX TEMP:  19; 6HR PCP: TRACE;

GRAYLING       LGT SNOW  16  10  76 NW17G23   29.69S WCI   0
6HR MIN TEMP:  16; 6HR MAX TEMP:  21;

HARBOR SPRINGS FLURRIES  13   6  74 N5        29.74S WCI   5
HOUGHTON LAKE  CLOUDY    17  11  77 N9        29.68S WCI   6
6HR MIN TEMP:  17; 6HR MAX TEMP:  23; 6HR PCP: TRACE;

MANISTEE       CLOUDY    19  12  73 NW20G26   29.79F VSB 1   WCI   4
OSCODA         LGT SNOW  19  14  82 NW12G17   29.66S WCI   6
6HR MIN TEMP:  19; 6HR MAX TEMP:  25;

PELLSTON       LGT SNOW  13   7  77 NW15      29.75R WCI  -3
6HR MIN TEMP:  13; 6HR MAX TEMP:  18; 6HR PCP: TRACE;

ROGERS CITY    LGT SNOW  16  12  82 N15G21    29.70R WCI   2
TRAVERSE CITY  LGT SNOW  19  13  77 NW22G30   29.76S WCI   2
6HR MIN TEMP:  19; 6HR MAX TEMP:  23; 6HR PCP: TRACE;

$$
MIZ007>008-015-100700-
EASTERN UPPER MICHIGAN

CITY           SKY/WX    TMP DP  RH WIND       PRES   REMARKS
KINROSS        CLOUDY     7   3  85 N16       29.73S WCI -11
6HR MIN TEMP:   7; 6HR MAX TEMP:  19;

MACKINAC ISLAN LGT SNOW  11   7  84 N15G24    29.73R WCI  -5
6HR MIN TEMP:  11; 6HR MAX TEMP:  18;

NEWBERRY       CLOUDY     9   5  84 N12       29.77R FOG     WCI  -6
6HR MIN TEMP:   9; 6HR MAX TEMP:  15;

S. S. MARIE    FLURRIES   6  -4  63 N13       29.75S WCI -10
6HR MIN TEMP:   6; 6HR MAX TEMP:  19; 6HR PCP: TRACE;

$$
MIZ004>006-011>014-085-100700-
CENTRAL UPPER MICHIGAN

CITY           SKY/WX    TMP DP  RH WIND       PRES   REMARKS
MANISTIQUE     CLOUDY    13   7  77 N14G21    29.81R HAZE    WCI  -3
6HR MIN TEMP:  13; 6HR MAX TEMP:  17;

ESCANABA       CLOUDY    12   3  67 NW18G25   29.85S WCI  -5
6HR MIN TEMP:  12; 6HR MAX TEMP:  16;

MENOMINEE      PTCLDY    10   0  61 NW15G22   29.91R WCI  -6
6HR MIN TEMP:  10; 6HR MAX TEMP:  14;

SAWYER-GWINN   CLOUDY     7   2  82 NW15G23   29.83S WCI -11
6HR MIN TEMP:   7; 6HR MAX TEMP:  11;

$$
MIZ001>003-009>011-084-100700-
WESTERN UPPER MICHIGAN

CITY           SKY/WX    TMP DP  RH WIND       PRES   REMARKS
IRON MOUNTAIN  CLOUDY     7   1  76 NW13      29.89R HAZE    WCI  -9
6HR MIN TEMP:   7; 6HR MAX TEMP:  11; 6HR PCP: TRACE;

HOUGHTON       CLOUDY     6  -1  73 N16       29.95S HAZE    WCI -12
6HR MIN TEMP:   6; 6HR MAX TEMP:  10; 6HR PCP:  0.01;

COPPER HARBOR    N/A     13   8  81 NE24G37   29.95S WCI  -7
6HR MIN TEMP:  12; 6HR MAX TEMP:  15;

IRONWOOD       CLOUDY     7   3  85 NW10      29.96F WCI  -8
6HR MIN TEMP:   7; 6HR MAX TEMP:  10;

$$

ABBREVIATIONS USED IN REMARKS
   TC - TEMPERATURE IN CELSIUS
  WCI - WIND CHILL INDEX
   HX - HEAT INDEX
  VSB - VISIBILITY





USA.gov is the U.S. government's official web portal to all federal, state and local government web resources and services.